Regional Weather Roundup
Issued by NWS

Home | Current Version | Previous Version | Graphics & Text | Print | Product List | Glossary On
Versions: 1 2 3 4 5 6 7 8 9 10 11 12 13 14 15 16 17 18 19 20 21 22 23 24 25 26 27
000
ASUS45 KSLC 210510
RWRUT

UTAH REGIONAL WEATHER ROUNDUP
NATIONAL WEATHER SERVICE SALT LAKE CITY UT
1100 PM MDT SUN AUG 20 2017

UTZ001>011-023>025-210600-

NORTHERN UTAH

CITY           SKY/WX    TMP DP  RH WIND       PRES   REMARKS
BRIGHAM CITY   CLEAR     75  39  26 NW3       30.01S
HILL AFB       CLEAR     75  37  24 SE13      30.05R
LOGAN          CLEAR     71  48  43 S7        30.04R
OGDEN          CLEAR     75  39  27 S8        30.01R
SALT LAKE CITY PTCLDY    80  40  23 SE8       30.01R
TOOELE VALLEY  CLEAR     66  41  39 S14       30.03R
WENDOVER       MOCLDY    87  35  15 N10G18    30.00R
HEBER CITY     PTCLDY    63  41  45 CALM      30.14R
WEST JORDAN    CLEAR     75  49  41 SW10      30.06R

$$

UTZ011>015-024>027-210600-

CENTRAL/NORTHEAST UTAH

CITY           SKY/WX    TMP DP  RH WIND       PRES   REMARKS
PROVO AIRPORT  PTCLDY    71  45  39 E6        30.07
MOAB/CANYONLAN MOCLDY    85  35  16 CALM      30.03R
DELTA          MOCLDY    72  37  28 S12       30.08R
PRICE          CLOUDY    72  39  30 CALM      30.15R
ROOSEVELT      CLOUDY    63  46  55 SW6       30.13R
VERNAL         CLEAR     69  44  40 NW6       30.11R

$$

UTZ013>016-019>022-027-210600-

SOUTHERN UTAH

CITY           SKY/WX    TMP DP  RH WIND       PRES   REMARKS
BRYCE CANYON   CLOUDY    58  45  62 N3        30.34F
CEDAR CITY     MOCLDY    72  43  35 E9        30.18R
MILFORD        CLOUDY    73  48  41 S13G21    30.10F
ST GEORGE      PTCLDY    82  49  31 CALM      29.99R
HANKSVILLE     MOCLDY    79  37  22 CALM      30.06R
BLANDING       CLOUDY    72  43  35 SE3       30.27S

$$

REGIONAL REPORTS     COLORADO/ARIZONA

CITY           SKY/WX    TMP DP  RH WIND       PRES   REMARKS
CRAIG, CO      CLOUDY    54  39  57 W3        30.19R
GRAND JUNCTION CLOUDY    82  37  20 W5        30.05R
RIFLE, CO      CLOUDY    68  36  30 E7        30.12R
MONTROSE, CO   CLOUDY    72  41  32 S9        30.17R
CORTEZ, CO     CLOUDY    68  49  50 S8        30.22R
COLORADO CITY    N/A     77  46  33 E9        30.18R
PAGE, AZ       CLOUDY    81  44  27 CALM      30.08R
GRAND CANYON   CLOUDY    58  49  72 NE3       30.30R
KINGMAN, AZ    LGT RAIN  71  58  63 SE25G31   30.05S
FLAGSTAFF, AZ  CLOUDY    59  47  64 VRB3      30.29R

$$

REGIONAL REPORTS    NEVADA/IDAHO/WYOMING

CITY           SKY/WX    TMP DP  RH WIND       PRES   REMARKS
LAS VEGAS, NV  CLOUDY    95  43  16 S9        29.89R HX  91
ELY, NY        PTCLDY    65  26  23 S12       30.17R
ELKO, NV       PTCLDY    79  30  16 NE8G22    30.07R
POCATELLO, ID  CLOUDY    69  36  29 SW9       30.07R
BURLEY, ID     PTCLDY    66  40  38 SW12      30.05R
FORT BRIDGER,    N/A     62  36  38 W7        30.27S
EVANSTON, WY   CLOUDY    65  33  30 S6        30.25R
ROCK SPRINGS,  CLOUDY    70  33  25 W8        30.22R
KEMMERER, WY     N/A     61  30  31 N7        30.26S

$$




USA.gov is the U.S. government's official web portal to all federal, state and local government web resources and services.